7 * 24
多渠道服务支持
NOAA 19是由美国研制发射的极轨气象卫星,于2009年2月6日顺利进入预定轨道,隶属于美国国家海洋和大气管理局的NOAA卫星系列。它主要承担全球气象观测、气候监测任务,可获取大气温度、湿度以及海面温度等关键气象数据,为天气预报、气候研究和灾害预警提供支撑,目前仍在轨持续服务气象领域。
美国
(US)
| 数据来源 | 国际轨道数据 |
| 星历时间: | 2026-09-12T05:43:52+0800 6小时前 查看轨道信息 |
| 半长轴: | 7225.607km |
| 偏心率: | 0.001446 |
| 轨道倾角: | 98.945° |
| 近地点辐角 | 141.916° |
| 升交点赤经 | 325.812° |
| 平近点角 | 218.304° |
| 近地点: | 837.021km |
| 远地点: | 857.919km |
| 周期: | 101.876分钟 |
| 每日圈数: | 14.134852 |